When you browse on this site, cookies collect data to enhance your experience and personalize the content and advertising you see.
Visit our Privacy Policy to learn more. By continuing to use the site, you agree to this use of cookies and data.
  • In Austria
  • List of Countries
  • For 7 days
  • Water Temperature
  • Weather Map
  • News
  • Weather Widgets
  • user-avatar
    Login

    Hourly Weather Rzhavka

    Today, 15 November, Friday

    Time Temperature Precipitation Wind Pressure Humidity
    00:00 0°C° 0 mm 3 mps 764 mmHg 75%
    01:00 -1°C° 0 mm 3 mps 764 mmHg 73%
    02:00 -2°C° 0 mm 3 mps 764 mmHg 74%
    03:00 -4°C° 0 mm 3 mps 765 mmHg 75%
    04:00 -3°C° 0 mm 2 mps 765 mmHg 76%
    05:00 -4°C° 0 mm 2 mps 765 mmHg 76%
    06:00 -4°C° 0 mm 2 mps 765 mmHg 75%
    07:00 -4°C° 0 mm 2 mps 765 mmHg 75%
    08:00 -3°C° 0 mm 2 mps 766 mmHg 71%
    09:00 -3°C° 0 mm 2 mps 766 mmHg 66%
    10:00 -2°C° 0 mm 2 mps 766 mmHg 62%
    11:00 -1°C° 0 mm 2 mps 766 mmHg 59%
    12:00 +1°C° 0 mm 2 mps 766 mmHg 56%
    13:00 +2°C° 0 mm 2 mps 766 mmHg 53%
    14:00 +2°C° 0 mm 2 mps 766 mmHg 55%
    15:00 +1°C° 0 mm 2 mps 766 mmHg 57%
    16:00 +2°C° 0 mm 1 mps 766 mmHg 59%
    17:00 +1°C° 0 mm 1 mps 766 mmHg 61%
    18:00 +1°C° 0 mm 1 mps 766 mmHg 63%
    19:00 0°C° 0 mm 1 mps 766 mmHg 65%
    20:00 0°C° 0 mm 1 mps 766 mmHg 65%
    21:00 0°C° 0 mm 1 mps 766 mmHg 65%
    22:00 0°C° 0 mm 1 mps 767 mmHg 65%
    23:00 0°C° 0 mm 1 mps 766 mmHg 66%

    Tomorrow, 16 November, Saturday

    Time Temperature Precipitation Wind Pressure Humidity
    00:00 0°C° 0 mm 1 mps 766 mmHg 66%
    01:00 -1°C° 0 mm 1 mps 766 mmHg 67%
    02:00 -1°C° 0 mm 1 mps 766 mmHg 67%
    03:00 -1°C° 0 mm 1 mps 766 mmHg 68%
    04:00 -1°C° 0 mm 1 mps 767 mmHg 68%
    05:00 -1°C° 0 mm 1 mps 766 mmHg 69%
    06:00 -1°C° 0 mm 1 mps 766 mmHg 70%
    07:00 -1°C° 0 mm 1 mps 766 mmHg 70%
    08:00 0°C° 0 mm 1 mps 766 mmHg 67%
    09:00 +1°C° 0 mm 1 mps 767 mmHg 63%
    10:00 +2°C° 0 mm 1 mps 767 mmHg 59%
    11:00 +2°C° 0 mm 2 mps 767 mmHg 56%
    12:00 +3°C° 0 mm 2 mps 766 mmHg 53%
    13:00 +4°C° 0 mm 2 mps 766 mmHg 50%
    14:00 +3°C° 0 mm 2 mps 766 mmHg 53%
    15:00 +2°C° 0 mm 2 mps 766 mmHg 55%
    16:00 +3°C° 0 mm 1 mps 766 mmHg 58%
    17:00 +2°C° 0 mm 1 mps 766 mmHg 60%
    18:00 +1°C° 0 mm 1 mps 766 mmHg 61%
    19:00 +1°C° 0 mm 1 mps 765 mmHg 63%
    20:00 0°C° 0 mm 1 mps 765 mmHg 63%
    21:00 0°C° 0 mm 1 mps 765 mmHg 63%
    22:00 0°C° 0 mm 1 mps 765 mmHg 63%
    23:00 0°C° 0 mm 1 mps 765 mmHg 63%

    Day after tomorrow, 17 November, Sunday

    Time Temperature Precipitation Wind Pressure Humidity
    00:00 0°C° 0 mm 1 mps 765 mmHg 63%
    01:00 0°C° 0 mm 1 mps 765 mmHg 63%
    02:00 -3°C° 0 mm 2 mps 765 mmHg 64%
    03:00 -3°C° 0 mm 2 mps 764 mmHg 64%
    04:00 -3°C° 0 mm 2 mps 764 mmHg 64%
    05:00 -3°C° 0 mm 2 mps 764 mmHg 65%
    06:00 -3°C° 0 mm 2 mps 764 mmHg 67%
    07:00 -4°C° 0 mm 3 mps 763 mmHg 68%
    08:00 -4°C° 0 mm 3 mps 763 mmHg 64%
    09:00 -2°C° 0 mm 3 mps 763 mmHg 60%
    10:00 -1°C° 0 mm 3 mps 763 mmHg 57%
    11:00 -1°C° 0 mm 4 mps 763 mmHg 53%
    12:00 0°C° 0 mm 4 mps 762 mmHg 50%
    13:00 +1°C° 0 mm 4 mps 762 mmHg 47%
    14:00 +1°C° 0 mm 4 mps 762 mmHg 50%
    15:00 0°C° 0 mm 4 mps 761 mmHg 53%
    16:00 0°C° 0 mm 4 mps 761 mmHg 56%
    17:00 -1°C° 0 mm 4 mps 761 mmHg 60%
    18:00 -1°C° 0 mm 3 mps 761 mmHg 64%
    19:00 -2°C° 0 mm 3 mps 761 mmHg 68%
    20:00 -2°C° 0 mm 3 mps 760 mmHg 70%
    21:00 -2°C° 0 mm 3 mps 760 mmHg 73%
    22:00 -2°C° 0 mm 2 mps 760 mmHg 75%
    23:00 -2°C° 0 mm 2 mps 760 mmHg 76%

    18 November, Monday

    Time Temperature Precipitation Wind Pressure Humidity
    00:00 -2°C° 0 mm 2 mps 760 mmHg 78%
    01:00 -2°C° 0 mm 2 mps 759 mmHg 79%
    02:00 -2°C° 0 mm 2 mps 759 mmHg 81%
    03:00 -2°C° 0 mm 2 mps 759 mmHg 82%
    04:00 -2°C° 0 mm 3 mps 758 mmHg 83%
    05:00 -2°C° 0 mm 3 mps 758 mmHg 83%
    06:00 -4°C° 0 mm 3 mps 758 mmHg 83%
    07:00 -4°C° 0 mm 3 mps 757 mmHg 83%
    08:00 -3°C° 0 mm 4 mps 757 mmHg 76%
    09:00 -2°C° 0 mm 4 mps 757 mmHg 69%
    10:00 -1°C° 0 mm 5 mps 756 mmHg 62%
    11:00 -1°C° 0 mm 5 mps 756 mmHg 56%
    12:00 -1°C° 0 mm 6 mps 755 mmHg 51%
    13:00 +1°C° 0 mm 6 mps 755 mmHg 45%
    14:00 +1°C° 0 mm 6 mps 754 mmHg 46%
    15:00 +1°C° 0 mm 6 mps 754 mmHg 47%
    16:00 -1°C° 0 mm 6 mps 753 mmHg 48%
    17:00 0°C° 0 mm 5 mps 753 mmHg 53%
    18:00 -1°C° 0 mm 5 mps 753 mmHg 57%
    19:00 -2°C° 0 mm 4 mps 753 mmHg 62%
    20:00 -2°C° 0 mm 4 mps 753 mmHg 66%
    21:00 -2°C° 0 mm 4 mps 752 mmHg 71%
    22:00 -2°C° 0 mm 4 mps 752 mmHg 75%
    23:00 -1°C° 0 mm 4 mps 752 mmHg 80%

    19 November, Tuesday

    Time Temperature Precipitation Wind Pressure Humidity
    00:00 -1°C° 0 mm 4 mps 752 mmHg 84%
    01:00 0°C° 0 mm 3 mps 752 mmHg 89%
    02:00 0°C° 0 mm 3 mps 751 mmHg 91%
    03:00 0°C° 0 mm 3 mps 751 mmHg 93%
    04:00 +1°C° 0 mm 3 mps 751 mmHg 95%
    05:00 +1°C° 0 mm 3 mps 751 mmHg 95%
    06:00 +1°C° 0 mm 3 mps 751 mmHg 96%
    07:00 +1°C° 0 mm 3 mps 750 mmHg 96%
    08:00 +1°C° 0 mm 3 mps 750 mmHg 95%
    09:00 +1°C° 0 mm 4 mps 750 mmHg 94%
    10:00 +1°C° 0 mm 4 mps 750 mmHg 93%
    11:00 +1°C° 0.1 mm 4 mps 750 mmHg 90%
    12:00 +1°C° 0.1 mm 5 mps 750 mmHg 87%
    13:00 +1°C° 0.1 mm 5 mps 750 mmHg 84%
    14:00 -1°C° 0 mm 5 mps 750 mmHg 80%
    15:00 -3°C° 0 mm 6 mps 750 mmHg 76%
    16:00 -4°C° 0 mm 6 mps 750 mmHg 72%
    17:00 -6°C° 0 mm 6 mps 751 mmHg 71%
    18:00 -8°C° 0 mm 7 mps 751 mmHg 71%
    19:00 -9°C° 0 mm 7 mps 752 mmHg 70%
    20:00 -11°C° 0 mm 7 mps 753 mmHg 71%
    21:00 -10°C° 0 mm 6 mps 753 mmHg 72%
    22:00 -10°C° 0 mm 6 mps 754 mmHg 74%
    23:00 -11°C° 0 mm 6 mps 754 mmHg 68%

    20 November, Wednesday

    Time Temperature Precipitation Wind Pressure Humidity
    00:00 -12°C° 0 mm 6 mps 755 mmHg 62%
    01:00 -12°C° 0 mm 6 mps 756 mmHg 56%
    02:00 -14°C° 0 mm 6 mps 756 mmHg 52%
    03:00 -14°C° 0 mm 6 mps 757 mmHg 48%
    04:00 -15°C° 0 mm 6 mps 757 mmHg 43%
    05:00 -15°C° 0 mm 6 mps 758 mmHg 46%
    06:00 -14°C° 0 mm 5 mps 758 mmHg 48%
    07:00 -15°C° 0 mm 5 mps 758 mmHg 51%
    08:00 -16°C° 0 mm 6 mps 759 mmHg 50%
    09:00 -16°C° 0 mm 6 mps 759 mmHg 48%
    10:00 -16°C° 0 mm 6 mps 760 mmHg 47%
    11:00 -15°C° 0 mm 6 mps 760 mmHg 46%
    12:00 -15°C° 0 mm 6 mps 760 mmHg 46%
    13:00 -14°C° 0 mm 6 mps 761 mmHg 45%
    14:00 -14°C° 0 mm 6 mps 761 mmHg 46%
    15:00 -15°C° 0 mm 6 mps 761 mmHg 47%
    16:00 -15°C° 0 mm 6 mps 761 mmHg 49%
    17:00 -15°C° 0 mm 6 mps 761 mmHg 51%
    18:00 -16°C° 0 mm 6 mps 762 mmHg 53%
    19:00 -16°C° 0 mm 6 mps 762 mmHg 55%
    20:00 -17°C° 0 mm 6 mps 762 mmHg 55%
    21:00 -17°C° 0 mm 5 mps 762 mmHg 56%
    22:00 -17°C° 0 mm 5 mps 763 mmHg 57%
    23:00 -17°C° 0 mm 5 mps 763 mmHg 56%
    Show more